Location: *
(50.9167°S, 179.4000°W)
Time: 20:47:00
(UTC+00:00)

Cosmos 1140 Rocket - Pass Details

Date: 03 March 2024
Orbit: 742 x 765 km, 74.1° (Epoch: 16 April)

Event Time Altitude Azimuth Distance (km) Brightness Sun altitude
Exits shadow 16:23:55 15° 291° (WNW) 2,012 5.0 -11.0°
Maximum altitude 16:27:41 33° 233° (SW) 1,299 4.5 -10.5°
Drops below altitude 10° 16:32:27 10° 169° (S) 2,331 6.5 -9.8°
Sets 16:35:05 0° 159° (SSE) 3,259 7.5 -9.4°
